Location: Cortada de Papelón
(10.0378°N, 66.9528°W)
Time: 09:04:14
(UTC+00:00)

Nadezhda 4 Rocket - Pass Details

Date: 13 June 2024
Orbit: 949 x 992 km, 82.9° (Epoch: 20 July)

Event Time Altitude Azimuth Distance (km) Brightness Sun altitude
Rises 23:22:26 0° 177° (S) 3,646 6.7 -8.2°
Reaches altitude 10° 23:24:56 10° 174° (S) 2,705 6.0 -8.8°
Maximum altitude 23:31:05 67° 93° (E) 1,049 4.0 -10.2°
Drops below altitude 10° 23:37:17 10° 11° (N) 2,732 6.6 -11.5°
Sets 23:39:50 0° 9° (N) 3,685 7.3 -12.1°
